SWA3366 KSAN-KSJC

Flight info

Callsign SWA3366
Flight time 1h 5m
Altitude 38000
Route PADRZ2 IKAYE TESEA SCTRR TROXX SILCN6
Aircraft B737/M-SDE2E3FGHIRWXY/LB1

Departure

Time 2026-04-26 20:26
Airport San Diego International Airport (KSAN)

Arrival

Time 2026-04-26 21:31
Airport Norman Y. Mineta San Jose International Airport (KSJC)
Time Latitude Longitude Altitude Speed Heading
2026-04-26 19:54 32.73305 -117.19787 19 ft 0 kts 306°
2026-04-26 20:15 32.73291 -117.19764 22 ft 4 kts 297°
2026-04-26 20:16 32.73287 -117.19745 22 ft 3 kts 218°
2026-04-26 20:16 32.73308 -117.19728 20 ft 4 kts 202°
2026-04-26 20:16 32.73334 -117.19718 19 ft 4 kts 194°
2026-04-26 20:16 32.73359 -117.19709 22 ft 4 kts 201°
2026-04-26 20:17 32.73384 -117.19698 23 ft 4 kts 198°
2026-04-26 20:17 32.73410 -117.19689 21 ft 4 kts 182°
2026-04-26 20:17 32.73430 -117.19694 23 ft 4 kts 113°
2026-04-26 20:17 32.73437 -117.19722 22 ft 2 kts 106°
2026-04-26 20:18 32.73438 -117.19723 22 ft 1 kts 106°
2026-04-26 20:20 32.73436 -117.19717 22 ft 2 kts 105°
2026-04-26 20:20 32.73429 -117.19688 24 ft 5 kts 105°
2026-04-26 20:20 32.73416 -117.19633 24 ft 8 kts 106°
2026-04-26 20:21 32.73398 -117.19561 24 ft 10 kts 106°
2026-04-26 20:21 32.73377 -117.19476 23 ft 11 kts 106°
2026-04-26 20:21 32.73353 -117.19376 22 ft 14 kts 106°
2026-04-26 20:21 32.73324 -117.19254 20 ft 16 kts 106°
2026-04-26 20:22 32.73293 -117.19127 20 ft 16 kts 106°
2026-04-26 20:22 32.73263 -117.19005 21 ft 15 kts 105°
2026-04-26 20:22 32.73235 -117.18888 22 ft 14 kts 106°
2026-04-26 20:22 32.73208 -117.18776 29 ft 14 kts 106°
2026-04-26 20:23 32.73181 -117.18667 27 ft 14 kts 106°
2026-04-26 20:23 32.73151 -117.18540 23 ft 18 kts 107°
2026-04-26 20:23 32.73115 -117.18392 23 ft 19 kts 105°
2026-04-26 20:23 32.73078 -117.18241 22 ft 19 kts 106°
2026-04-26 20:24 32.73043 -117.18098 19 ft 18 kts 106°
2026-04-26 20:24 32.73008 -117.17956 18 ft 17 kts 106°
2026-04-26 20:24 32.72976 -117.17820 17 ft 17 kts 105°
2026-04-26 20:24 32.72950 -117.17691 18 ft 16 kts 89°
2026-04-26 20:25 32.72995 -117.17578 23 ft 15 kts 15°
2026-04-26 20:25 32.73036 -117.17638 20 ft 15 kts 285°
2026-04-26 20:25 32.73132 -117.18034 20 ft 82 kts 286°
2026-04-26 20:25 32.73350 -117.18933 25 ft 143 kts 285°
2026-04-26 20:26 32.73646 -117.20156 519 ft 158 kts 287°
2026-04-26 20:26 32.74041 -117.21382 1359 ft 164 kts 297°
2026-04-26 20:26 32.74669 -117.22570 2008 ft 176 kts 302°
2026-04-26 20:26 32.75382 -117.23831 2593 ft 195 kts 302°
2026-04-26 20:27 32.76198 -117.25268 2903 ft 221 kts 302°
2026-04-26 20:27 32.77113 -117.26877 3351 ft 245 kts 302°
2026-04-26 20:27 32.78079 -117.28572 4225 ft 249 kts 302°
2026-04-26 20:27 32.79056 -117.30287 5168 ft 252 kts 303°
2026-04-26 20:28 32.80056 -117.32022 6076 ft 256 kts 304°
2026-04-26 20:28 32.81124 -117.33708 7109 ft 255 kts 305°
2026-04-26 20:28 32.82216 -117.35385 8129 ft 257 kts 306°
2026-04-26 20:28 32.83311 -117.37064 9240 ft 257 kts 305°
2026-04-26 20:29 32.84409 -117.38752 10287 ft 260 kts 305°
2026-04-26 20:29 32.85555 -117.40524 10719 ft 285 kts 305°
2026-04-26 20:29 32.86812 -117.42474 11161 ft 305 kts 305°
2026-04-26 20:29 32.88119 -117.44498 11995 ft 311 kts 305°
2026-04-26 20:30 32.89444 -117.46553 12931 ft 315 kts 305°
2026-04-26 20:30 32.90787 -117.48639 13840 ft 322 kts 305°
2026-04-26 20:30 32.92159 -117.50773 14661 ft 327 kts 304°
2026-04-26 20:30 32.93544 -117.52928 15625 ft 328 kts 304°
2026-04-26 20:31 32.94936 -117.55097 16590 ft 332 kts 303°
2026-04-26 20:31 32.96346 -117.57295 17503 ft 336 kts 303°
2026-04-26 20:31 32.97773 -117.59522 18400 ft 340 kts 302°
2026-04-26 20:31 32.99217 -117.61777 19177 ft 344 kts 302°
2026-04-26 20:32 33.00677 -117.64057 19978 ft 348 kts 302°
2026-04-26 20:32 33.02157 -117.66371 20709 ft 354 kts 302°
2026-04-26 20:32 33.03657 -117.68715 21456 ft 358 kts 302°
2026-04-26 20:32 33.05172 -117.71087 22234 ft 361 kts 302°
2026-04-26 20:33 33.06759 -117.73437 22973 ft 369 kts 308°
2026-04-26 20:33 33.08687 -117.75523 23682 ft 378 kts 313°
2026-04-26 20:33 33.10730 -117.77525 24307 ft 382 kts 314°
2026-04-26 20:33 33.12763 -117.79503 24963 ft 383 kts 313°
2026-04-26 20:34 33.14811 -117.81535 25632 ft 383 kts 311°
2026-04-26 20:34 33.16848 -117.83596 26261 ft 385 kts 311°
2026-04-26 20:34 33.18891 -117.85680 26876 ft 387 kts 310°
2026-04-26 20:34 33.20889 -117.87837 27434 ft 388 kts 307°
2026-04-26 20:35 33.22821 -117.90104 27971 ft 390 kts 306°
2026-04-26 20:35 33.24730 -117.92412 28566 ft 391 kts 305°
2026-04-26 20:35 33.26634 -117.94726 29115 ft 384 kts 305°
2026-04-26 20:35 33.28474 -117.96939 29105 ft 368 kts 304°
2026-04-26 20:36 33.30260 -117.99083 29116 ft 363 kts 304°
2026-04-26 20:36 33.33912 -118.03508 29296 ft 387 kts 305°
2026-04-26 20:36 33.35833 -118.05832 29518 ft 397 kts 305°
2026-04-26 20:37 33.37784 -118.08176 29958 ft 397 kts 306°
2026-04-26 20:37 33.39750 -118.10527 30061 ft 403 kts 306°
2026-04-26 20:37 33.41735 -118.12903 30235 ft 404 kts 306°
2026-04-26 20:37 33.43719 -118.15275 30475 ft 402 kts 306°
2026-04-26 20:38 33.45706 -118.17655 30782 ft 405 kts 306°
2026-04-26 20:38 33.47694 -118.20039 31342 ft 403 kts 306°
2026-04-26 20:38 33.49666 -118.22403 31998 ft 399 kts 305°
2026-04-26 20:38 33.51616 -118.24743 32657 ft 395 kts 305°
2026-04-26 20:39 33.53547 -118.27062 33263 ft 392 kts 304°
2026-04-26 20:39 33.54828 -118.28597 33493 ft 379 kts 304°
2026-04-26 20:39 33.57279 -118.31543 33506 ft 379 kts 305°
2026-04-26 20:39 33.59152 -118.33818 33620 ft 387 kts 305°
2026-04-26 20:40 33.61047 -118.36115 33766 ft 383 kts 305°
2026-04-26 20:40 33.64880 -118.40760 34122 ft 396 kts 305°
2026-04-26 20:40 33.66819 -118.43104 34523 ft 395 kts 305°
2026-04-26 20:41 33.68748 -118.45433 34993 ft 392 kts 304°
2026-04-26 20:41 33.70667 -118.47751 35396 ft 391 kts 304°
2026-04-26 20:41 33.72583 -118.50071 35729 ft 391 kts 304°
2026-04-26 20:41 33.74499 -118.52395 36061 ft 392 kts 304°
2026-04-26 20:42 33.76424 -118.54734 36357 ft 394 kts 304°
2026-04-26 20:42 33.78351 -118.57073 36762 ft 392 kts 304°
2026-04-26 20:42 33.80265 -118.59395 37181 ft 390 kts 304°
2026-04-26 20:42 33.82173 -118.61714 37532 ft 390 kts 304°
2026-04-26 20:43 33.84079 -118.64034 37857 ft 390 kts 304°
2026-04-26 20:43 33.85989 -118.66361 38049 ft 393 kts 304°
2026-04-26 20:43 33.87927 -118.68730 38030 ft 400 kts 304°
2026-04-26 20:44 33.91877 -118.73558 38055 ft 410 kts 305°
2026-04-26 20:44 33.95928 -118.78505 38026 ft 419 kts 305°
2026-04-26 20:45 34.00050 -118.83541 38014 ft 424 kts 305°
2026-04-26 20:45 34.04191 -118.88606 38003 ft 424 kts 305°
2026-04-26 20:46 34.08325 -118.93672 38009 ft 424 kts 305°
2026-04-26 20:46 34.12357 -118.98805 38006 ft 422 kts 306°
2026-04-26 20:47 34.16501 -119.03705 37999 ft 406 kts 307°
2026-04-26 20:47 34.20490 -119.08384 38015 ft 396 kts 306°
2026-04-26 20:48 34.24412 -119.13048 38024 ft 395 kts 306°
2026-04-26 20:48 34.28296 -119.17690 38026 ft 396 kts 307°
2026-04-26 20:49 34.32234 -119.22403 38034 ft 396 kts 307°
2026-04-26 20:49 34.36160 -119.27100 38026 ft 397 kts 306°
2026-04-26 20:50 34.40063 -119.31786 38014 ft 398 kts 307°
2026-04-26 20:50 34.44000 -119.36514 38025 ft 399 kts 307°
2026-04-26 20:51 34.47951 -119.41265 37987 ft 401 kts 307°
2026-04-26 20:51 34.51924 -119.46045 37987 ft 403 kts 307°
2026-04-26 20:52 34.55906 -119.50850 37985 ft 404 kts 307°
2026-04-26 20:52 34.59899 -119.55672 37967 ft 405 kts 307°
2026-04-26 20:53 34.63897 -119.60502 37994 ft 406 kts 307°
2026-04-26 20:53 34.67897 -119.65340 37981 ft 405 kts 307°
2026-04-26 20:54 34.71882 -119.70169 37974 ft 404 kts 307°
2026-04-26 20:54 34.75838 -119.74983 37988 ft 401 kts 307°
2026-04-26 20:55 34.79780 -119.79779 37990 ft 401 kts 307°
2026-04-26 20:55 34.83719 -119.84581 37992 ft 401 kts 308°
2026-04-26 20:56 34.87664 -119.89393 37998 ft 402 kts 308°
2026-04-26 20:56 34.90948 -119.93399 37973 ft 403 kts 308°
2026-04-26 20:57 34.94905 -119.98241 38029 ft 404 kts 308°
2026-04-26 20:57 34.98869 -120.03098 38016 ft 404 kts 308°
2026-04-26 20:58 35.02840 -120.07961 38015 ft 404 kts 308°
2026-04-26 20:58 35.06799 -120.12830 38031 ft 404 kts 308°
2026-04-26 20:59 35.10771 -120.17712 38037 ft 405 kts 308°
2026-04-26 20:59 35.14733 -120.22600 37971 ft 403 kts 308°
2026-04-26 20:59 35.16699 -120.25014 37639 ft 398 kts 309°
2026-04-26 21:00 35.18800 -120.27204 37373 ft 397 kts 316°
2026-04-26 21:00 35.21007 -120.29223 37132 ft 396 kts 317°
2026-04-26 21:00 35.23228 -120.31222 36874 ft 397 kts 317°
2026-04-26 21:00 35.25450 -120.33222 36611 ft 397 kts 317°
2026-04-26 21:01 35.27669 -120.35229 36368 ft 396 kts 317°
2026-04-26 21:01 35.29879 -120.37240 36152 ft 397 kts 317°
2026-04-26 21:01 35.32097 -120.39268 36089 ft 399 kts 317°
2026-04-26 21:02 35.36529 -120.43334 36049 ft 401 kts 317°
2026-04-26 21:02 35.40984 -120.47425 36032 ft 399 kts 317°
2026-04-26 21:03 35.45426 -120.51513 36048 ft 399 kts 317°
2026-04-26 21:03 35.49869 -120.55607 36056 ft 399 kts 317°
2026-04-26 21:04 35.54368 -120.59625 36057 ft 401 kts 321°
2026-04-26 21:04 35.59086 -120.63320 36066 ft 403 kts 322°
2026-04-26 21:05 35.63852 -120.66987 35551 ft 405 kts 322°
2026-04-26 21:05 35.66236 -120.68837 34988 ft 406 kts 322°
2026-04-26 21:05 35.68617 -120.70697 34462 ft 405 kts 322°
2026-04-26 21:05 35.70984 -120.72553 34050 ft 401 kts 323°
2026-04-26 21:06 35.73331 -120.74397 33530 ft 399 kts 323°
2026-04-26 21:06 35.75657 -120.76227 33078 ft 394 kts 323°
2026-04-26 21:06 35.77954 -120.78037 32645 ft 390 kts 323°
2026-04-26 21:06 35.80229 -120.79831 32238 ft 386 kts 323°
2026-04-26 21:07 35.82478 -120.81606 31857 ft 382 kts 323°
2026-04-26 21:07 35.84706 -120.83365 31433 ft 379 kts 323°
2026-04-26 21:07 35.86914 -120.85111 31009 ft 375 kts 323°
2026-04-26 21:07 35.89104 -120.86843 30615 ft 372 kts 324°
2026-04-26 21:08 35.91274 -120.88560 30223 ft 369 kts 324°
2026-04-26 21:08 35.93428 -120.90267 29783 ft 366 kts 324°
2026-04-26 21:08 35.95561 -120.91957 29330 ft 362 kts 324°
2026-04-26 21:08 35.97669 -120.93627 28910 ft 358 kts 324°
2026-04-26 21:09 35.99725 -120.95258 28498 ft 354 kts 324°
2026-04-26 21:09 36.01762 -120.96933 28045 ft 350 kts 321°
2026-04-26 21:09 36.03700 -120.98720 27625 ft 346 kts 319°
2026-04-26 21:09 36.05589 -121.00539 27215 ft 343 kts 319°
2026-04-26 21:10 36.07455 -121.02349 26795 ft 340 kts 319°
2026-04-26 21:10 36.09309 -121.04143 26392 ft 337 kts 319°
2026-04-26 21:10 36.11153 -121.05917 25985 ft 335 kts 319°
2026-04-26 21:10 36.12988 -121.07675 25584 ft 332 kts 319°
2026-04-26 21:11 36.14812 -121.09419 25188 ft 330 kts 319°
2026-04-26 21:11 36.16625 -121.11150 24803 ft 328 kts 319°
2026-04-26 21:11 36.18429 -121.12873 24390 ft 327 kts 319°
2026-04-26 21:11 36.20224 -121.14586 23976 ft 325 kts 319°
2026-04-26 21:12 36.22012 -121.16294 23561 ft 324 kts 319°
2026-04-26 21:12 36.23789 -121.17992 23102 ft 322 kts 319°
2026-04-26 21:12 36.25555 -121.19680 22651 ft 319 kts 319°
2026-04-26 21:12 36.27306 -121.21354 22232 ft 316 kts 319°
2026-04-26 21:13 36.29038 -121.23012 21826 ft 313 kts 319°
2026-04-26 21:13 36.30755 -121.24656 21419 ft 310 kts 319°
2026-04-26 21:13 36.32456 -121.26286 21027 ft 308 kts 319°
2026-04-26 21:13 36.34142 -121.27902 20636 ft 305 kts 319°
2026-04-26 21:14 36.35816 -121.29507 20256 ft 303 kts 319°
2026-04-26 21:14 36.37476 -121.31104 19866 ft 301 kts 319°
2026-04-26 21:14 36.39126 -121.32694 19476 ft 300 kts 319°
2026-04-26 21:14 36.40767 -121.34276 19088 ft 298 kts 319°
2026-04-26 21:15 36.42399 -121.35851 18696 ft 296 kts 319°
2026-04-26 21:15 36.44024 -121.37418 18309 ft 295 kts 319°
2026-04-26 21:15 36.45640 -121.38978 17868 ft 294 kts 319°
2026-04-26 21:15 36.47248 -121.40530 17456 ft 292 kts 319°
2026-04-26 21:16 36.48842 -121.42070 17073 ft 289 kts 319°
2026-04-26 21:16 36.50534 -121.43422 16662 ft 292 kts 333°
2026-04-26 21:16 36.52439 -121.44280 16308 ft 291 kts 337°
2026-04-26 21:16 36.54357 -121.45059 15920 ft 289 kts 338°
2026-04-26 21:17 36.56243 -121.45819 15544 ft 288 kts 338°
2026-04-26 21:17 36.58141 -121.46594 15167 ft 286 kts 338°
2026-04-26 21:17 36.60027 -121.47374 14800 ft 285 kts 338°
2026-04-26 21:17 36.61905 -121.48158 14421 ft 285 kts 338°
2026-04-26 21:18 36.63781 -121.48945 14048 ft 284 kts 338°
2026-04-26 21:18 36.65650 -121.49733 13656 ft 283 kts 338°
2026-04-26 21:18 36.67515 -121.50520 13252 ft 282 kts 338°
2026-04-26 21:18 36.69369 -121.51306 12856 ft 281 kts 338°
2026-04-26 21:19 36.71216 -121.52087 12478 ft 280 kts 338°
2026-04-26 21:19 36.73052 -121.52863 12100 ft 278 kts 338°
2026-04-26 21:19 36.74877 -121.53637 11746 ft 277 kts 338°
2026-04-26 21:19 36.76698 -121.54409 11401 ft 277 kts 338°
2026-04-26 21:20 36.78526 -121.55186 11026 ft 278 kts 338°
2026-04-26 21:20 36.80361 -121.55966 10644 ft 279 kts 339°
2026-04-26 21:20 36.82197 -121.56747 10279 ft 279 kts 339°
2026-04-26 21:20 36.84019 -121.57522 10075 ft 272 kts 340°
2026-04-26 21:21 36.85807 -121.58280 9689 ft 271 kts 338°
2026-04-26 21:21 36.87590 -121.59040 9313 ft 270 kts 338°
2026-04-26 21:21 36.89364 -121.59795 8941 ft 269 kts 339°
2026-04-26 21:21 36.91133 -121.60549 8584 ft 268 kts 338°
2026-04-26 21:22 36.92890 -121.61298 8218 ft 265 kts 338°
2026-04-26 21:22 36.94632 -121.62035 7888 ft 263 kts 337°
2026-04-26 21:22 36.96361 -121.62770 7544 ft 262 kts 339°
2026-04-26 21:23 36.99802 -121.64235 6861 ft 261 kts 338°
2026-04-26 21:23 37.01520 -121.64961 6507 ft 260 kts 339°
2026-04-26 21:23 37.03209 -121.65679 6169 ft 260 kts 338°
2026-04-26 21:23 37.04947 -121.66417 5807 ft 260 kts 339°
2026-04-26 21:24 37.06653 -121.67144 5464 ft 258 kts 338°
2026-04-26 21:24 37.08320 -121.67851 5157 ft 255 kts 339°
2026-04-26 21:24 37.09961 -121.68551 5034 ft 244 kts 339°
2026-04-26 21:24 37.11534 -121.69218 4918 ft 233 kts 337°
2026-04-26 21:25 37.13041 -121.69860 4809 ft 224 kts 336°
2026-04-26 21:25 37.14485 -121.70476 4725 ft 215 kts 337°
2026-04-26 21:25 37.15874 -121.71068 4630 ft 208 kts 336°
2026-04-26 21:25 37.17083 -121.71979 4528 ft 202 kts 312°
2026-04-26 21:26 37.18148 -121.73161 4304 ft 208 kts 317°
2026-04-26 21:26 37.19276 -121.74309 4055 ft 209 kts 317°
2026-04-26 21:26 37.20379 -121.75483 3801 ft 206 kts 315°
2026-04-26 21:26 37.21445 -121.76648 3557 ft 202 kts 314°
2026-04-26 21:27 37.22495 -121.77810 3344 ft 201 kts 317°
2026-04-26 21:27 37.23539 -121.78961 3227 ft 201 kts 316°
2026-04-26 21:27 37.24588 -121.80113 3009 ft 198 kts 315°
2026-04-26 21:27 37.25605 -121.81221 2732 ft 189 kts 313°
2026-04-26 21:28 37.26562 -121.82288 2476 ft 181 kts 316°
2026-04-26 21:28 37.27471 -121.83294 2234 ft 168 kts 315°
2026-04-26 21:28 37.28304 -121.84211 2062 ft 149 kts 314°
2026-04-26 21:28 37.29047 -121.85032 1839 ft 135 kts 313°
2026-04-26 21:29 37.29759 -121.85819 1644 ft 137 kts 316°
2026-04-26 21:29 37.30473 -121.86606 1465 ft 136 kts 317°
2026-04-26 21:29 37.31187 -121.87393 1277 ft 135 kts 318°
2026-04-26 21:29 37.31895 -121.88173 1052 ft 135 kts 318°
2026-04-26 21:30 37.32616 -121.88966 878 ft 137 kts 317°
2026-04-26 21:30 37.33324 -121.89755 702 ft 135 kts 317°
2026-04-26 21:30 37.34018 -121.90521 515 ft 130 kts 319°
2026-04-26 21:30 37.34702 -121.91272 353 ft 131 kts 317°
2026-04-26 21:31 37.35391 -121.92024 158 ft 131 kts 318°
2026-04-26 21:31 37.36065 -121.92764 58 ft 119 kts 318°
2026-04-26 21:31 37.36589 -121.93340 56 ft 79 kts 319°
2026-04-26 21:31 37.36878 -121.93657 59 ft 35 kts 319°
2026-04-26 21:32 37.37032 -121.93815 57 ft 24 kts 333°
2026-04-26 21:32 37.37179 -121.93776 60 ft 23 kts 46°
2026-04-26 21:32 37.37280 -121.93630 59 ft 21 kts 48°
2026-04-26 21:32 37.37262 -121.93499 61 ft 18 kts 140°
2026-04-26 21:33 37.37169 -121.93397 59 ft 17 kts 139°
2026-04-26 21:33 37.37079 -121.93299 57 ft 17 kts 139°
2026-04-26 21:33 37.36992 -121.93204 60 ft 16 kts 138°
2026-04-26 21:33 37.36909 -121.93113 56 ft 16 kts 138°
2026-04-26 21:34 37.36828 -121.93026 60 ft 15 kts 139°
2026-04-26 21:34 37.36752 -121.92941 60 ft 14 kts 139°
2026-04-26 21:34 37.36679 -121.92861 52 ft 14 kts 139°
2026-04-26 21:34 37.36615 -121.92787 61 ft 9 kts 124°
2026-04-26 21:35 37.36638 -121.92727 59 ft 6 kts 49°
2026-04-26 21:35 37.36652 -121.92707 59 ft 0 kts 49°